[[{"header":{"parameterUnit":"m.s-1","parameterCategory":1,"la1":30.2991,"la2":30.254,"lo1":-89.0895,"lo2":-89.0444,"dy":0.0017,"dx":0.0017,"nx":28,"ny":28,"refTime":"2026-03-05T03:00:00:Z","depth":0,"parameterNumber":2,"parameterNumberName":"U-component_of_WINDS"},"data":[0,0,0,0,0,0,0,0,0,0,0,0,0,0,0,0,0,0,0,0,0,0,0,0,0,0,0,0,0,0,0,0,0,0,0,0,0,0,0,0,0,0,0,0,0,0,0,0,0,0,0,0,0,0,0,0,0,0,-3.7789,-3.7789,0,-3.7859,-3.786,-3.7861,-3.7837,-3.7836,-3.7834,-3.7833,-3.7904,-3.7907,-3.7911,0,0,0,0,0,0,0,0,0,0,0,0,0,-3.7634,-3.7637,-3.7788,-3.7789,-3.779,-3.7859,-3.786,-3.7861,-3.7837,-3.7836,-3.7834,-3.7832,-3.7903,-3.7907,-3.7911,0,0,0,0,0,0,0,0,0,0,0,0,0,-3.7702,-3.7638,-3.7788,-3.7787,-3.7787,-3.7859,-3.786,-3.7861,-3.7838,-3.7836,-3.7833,-3.7831,-3.7902,-3.7907,-3.7911,-3.7988,0,0,-3.7927,-3.7929,0,0,0,0,0,0,0,0,-3.7698,-3.7708,-3.7786,-3.7787,-3.7788,-3.7837,-3.7831,-3.7904,-3.7838,-3.7819,-3.7833,-3.783,-3.7884,-3.789,-3.7908,-3.7991,-3.7994,-3.7927,-3.793,-3.7932,-3.7934,0,0,0,0,0,0,0,-3.7694,-3.7705,-3.7816,-3.7787,-3.7788,-3.7783,-3.779,-3.7845,-3.7863,-3.782,-3.7819,-3.7827,-3.7884,-3.7903,-3.791,-3.7995,-3.7927,-3.7931,-3.7934,-3.7936,-3.8146,-3.8148,0,0,0,0,0,0,-3.7689,-3.7701,-3.7814,-3.7818,-3.7737,-3.7787,-3.7795,-3.7824,-3.7862,-3.7866,-3.7829,-3.7826,-3.7896,-3.7904,-3.7912,-3.8004,-3.7932,-3.7937,-3.794,-3.8143,-3.8146,-3.8149,0,0,0,0,0,0,-3.7685,-3.7699,-3.7811,-3.7759,-3.7773,-3.7793,-3.7824,-3.7826,-3.7846,-3.7869,-3.7872,-3.7846,-3.7894,-3.7905,-3.7969,-3.8006,-3.7939,-3.7944,-3.814,-3.8144,-3.8148,-3.8188,0,0,0,0,0,0,-3.7681,-3.7698,-3.7727,-3.776,-3.7776,-3.7867,-3.7827,-3.7829,-3.7855,-3.7851,-3.7886,-3.7889,-3.7893,-3.7962,-3.7974,-3.8012,-3.7948,-3.8137,-3.8142,-3.8146,-3.8184,-3.8193,-3.8201,0,0,0,0,0,-3.7676,-3.7735,-3.7728,-3.7742,-3.7813,-3.787,-3.7879,-3.7882,-3.7858,-3.7887,-3.7902,-3.7888,-3.8001,-3.7969,-3.7983,-3.8022,-3.8134,-3.814,-3.8146,-3.818,-3.8191,-3.8201,0,0,0,0,0,0,-3.7705,-3.7739,-3.7732,-3.7805,-3.7835,-3.7865,-3.7902,-3.7894,-3.7931,-3.7926,-3.7929,-3.7937,-3.8003,-3.8019,-3.7983,-3.8098,-3.8064,-3.8073,-3.8085,-3.8096,-3.8105,-3.8098,-3.7952,0,0,0,0,0,-3.772,-3.7763,-3.7791,-3.7852,-3.7868,-3.7883,-3.7908,-3.7908,-3.7939,-3.7951,-3.7971,-3.8001,-3.8043,-3.8071,-3.8111,-3.8187,-3.8194,-3.8221,-3.823,-3.8237,-3.8243,-3.8285,-3.8297,-3.8168,-3.8168,-3.8168,0,0,-3.7751,-3.7775,-3.7802,-3.7859,-3.7882,-3.7926,-3.7893,-3.7942,-3.7975,-3.7958,-3.802,-3.8036,-3.807,-3.8141,-3.8173,-3.8156,-3.8281,-3.8244,-3.8249,-3.8252,-3.8292,-3.8304,-3.8315,-3.8172,-3.8171,-3.8171,0,0,-3.783,-3.7853,-3.7907,-3.7931,-3.7967,-3.7977,-3.799,-3.8023,-3.8033,-3.8095,-3.8084,-3.8124,-3.8196,-3.8221,-3.8243,-3.8334,-3.8322,-3.8347,-3.8392,-3.8432,-3.8442,-3.8451,-3.8483,-3.8494,-3.8355,-3.8355,-3.8355,0,-3.7864,-3.7931,-3.7935,-3.7985,-3.801,-3.7999,-3.8053,-3.8076,-3.8123,-3.814,-3.8122,-3.8213,-3.8235,-3.8311,-3.8334,-3.8352,-3.8367,-3.8342,-3.844,-3.8449,-3.8458,-3.8488,-3.85,-3.8357,-3.8357,-3.8357,-3.8357,0,-3.797,-3.8017,-3.8056,-3.8102,-3.8132,-3.8184,-3.8196,-3.8226,-3.8225,-3.8237,-3.8301,-3.8328,-3.8373,-3.8392,-3.839,-3.8468,-3.8456,-3.8439,-3.8404,-3.8473,-3.8501,-3.8513,-3.8361,-3.836,-3.8359,-3.8359,0,0,-3.8067,-3.8117,-3.8131,-3.8152,-3.8191,-3.8227,-3.8279,-3.8324,-3.8349,-3.8383,-3.8426,-3.8489,-3.8473,-3.8499,-3.8501,-3.8536,-3.8606,-3.8515,-3.8516,-3.853,-3.8693,-3.8704,-3.8717,-3.86,-3.8602,-3.8604,-3.8689,0,-3.8149,-3.8239,-3.8245,-3.8327,-3.837,-3.8361,-3.8406,-3.8436,-3.8449,-3.8488,-3.8503,-3.8547,-3.8523,-3.8539,-3.8574,-3.859,-3.8639,-3.8584,-3.8639,-3.8641,-3.8629,-3.8732,-3.8744,-3.8823,-3.8701,-3.8703,-3.8704,0,-3.8255,-3.8292,-3.8378,-3.8412,-3.8431,-3.8471,-3.8513,-3.8551,-3.8584,-3.8591,-3.8621,-3.8618,-3.8672,-3.8637,-3.871,-3.8673,-3.8697,-3.8708,-3.8712,-3.8715,-3.8675,-3.8737,-3.8849,-3.886,-3.8722,-3.872,-3.8719,0,-3.8315,-3.8387,-3.8448,-3.8467,-3.8508,-3.8537,-3.8556,-3.8587,-3.8614,-3.8651,-3.8669,-3.8712,-3.8735,-3.8769,-3.8778,-3.8752,-3.8851,-3.8817,-3.8858,-3.8858,-3.8877,-3.8876,-3.8993,-3.8896,-3.8896,-3.8895,-3.8895,0,-3.8404,-3.8457,-3.8476,-3.8513,-3.8572,-3.858,-3.8638,-3.8655,-3.8684,-3.8724,-3.872,-3.8758,-3.8769,-3.8809,-3.8818,-3.8877,-3.8888,-3.8895,-3.8896,-3.8894,-3.8893,-3.8908,-3.8902,-3.8899,-3.8898,-3.8897,-3.8897,0,-3.8481,-3.8496,-3.8561,-3.8596,-3.8606,-3.8648,-3.8678,-3.8714,-3.8728,-3.8779,-3.8792,-3.8813,-3.886,-3.8874,-3.8931,-3.8936,-3.9006,-3.9003,-3.8994,-3.8993,-3.9033,-3.9029,-3.9162,-3.918,-3.9073,-3.9074,-3.9075,0,-3.8535,-3.8576,-3.8616,-3.8642,-3.8663,-3.8706,-3.8734,-3.8744,-3.8773,-3.8815,-3.8846,-3.8893,-3.8931,-3.9007,-3.9028,-3.9071,-3.9068,-3.9112,-3.9075,-3.9072,-3.9067,-3.9064,-3.9068,-3.9119,-3.912,-3.9121,-3.9121,0,-3.8631,-3.8636,-3.8676,-3.872,-3.8753,-3.8788,-3.8821,-3.8843,-3.8858,-3.8891,-3.894,-3.8969,-3.9028,-3.9075,-3.9119,-3.9139,-3.9133,-3.9134,-3.9145,-3.9143,-3.9135,-3.9139,-3.9011,-3.913,-3.9129,-3.9128,-3.9128,-3.9128,-3.8697,-3.8732,-3.8766,-3.8811,-3.8838,-3.8869,-3.8904,-3.8923,-3.8964,-3.9012,-3.9016,-3.9069,-3.9103,-3.9162,-3.9184,-3.9226,-3.9213,-3.923,-3.9234,-3.9237,-3.924,-3.9131,-3.9234,-3.9234,-3.9234,-3.9234,-3.9234,0,-3.879,-3.8812,-3.8854,-3.8901,-3.8936,-3.8929,-3.8966,-3.8996,-3.9042,-3.9075,-3.9112,-3.9169,-3.9214,-3.9239,-3.9285,-3.9313,-3.9312,-3.9325,-3.9322,-3.9326,-3.925,-3.9234,-3.9325,-3.9325,-3.9325,-3.9325,-3.9325,-3.9325,-3.8843,-3.8903,-3.8913,-3.8986,-3.9008,-3.9059,-3.9081,-3.911,-3.9136,-3.9199,-3.9237,-3.9253,-3.9283,-3.9331,-3.9372,-3.9379,-3.9395,-3.9409,-3.9414,-3.9341,-3.9332,-3.9323,-3.9308,-3.9413,-3.9414,-3.9487,-3.9488,-3.9488]},{"header":{"parameterUnit":"m.s-1","parameterCategory":1,"la1":30.2991,"la2":30.254,"lo1":-89.0895,"lo2":-89.0444,"dy":0.0017,"dx":0.0017,"nx":28,"ny":28,"refTime":"2026-03-05T03:00:00:Z","depth":0,"parameterNumber":3,"parameterNumberName":"V-component_of_WINDS"},"data":[0,0,0,0,0,0,0,0,0,0,0,0,0,0,0,0,0,0,0,0,0,0,0,0,0,0,0,0,0,0,0,0,0,0,0,0,0,0,0,0,0,0,0,0,0,0,0,0,0,0,0,0,0,0,0,0,0,0,1.9067,1.9068,0,1.9117,1.9118,1.9118,1.9146,1.9146,1.9147,1.9147,1.9196,1.9197,1.9198,0,0,0,0,0,0,0,0,0,0,0,0,0,1.8996,1.8997,1.9067,1.9068,1.9068,1.9117,1.9118,1.9119,1.9146,1.9147,1.9147,1.9147,1.9196,1.9197,1.9198,0,0,0,0,0,0,0,0,0,0,0,0,0,1.9034,1.8997,1.9067,1.9088,1.9091,1.9117,1.9118,1.9119,1.9146,1.9147,1.9147,1.9147,1.9195,1.9197,1.9199,1.9207,0,0,1.9204,1.9205,0,0,0,0,0,0,0,0,1.9032,1.9037,1.9084,1.9087,1.909,1.9126,1.9111,1.9148,1.9146,1.9125,1.9147,1.9147,1.9172,1.9176,1.9185,1.921,1.9212,1.9204,1.9206,1.9206,1.9207,0,0,0,0,0,0,0,1.9029,1.9035,1.9087,1.9085,1.9088,1.9095,1.9101,1.9118,1.9147,1.9127,1.9129,1.9135,1.9174,1.9183,1.9186,1.9212,1.9204,1.9206,1.9207,1.9208,1.9249,1.9249,0,0,0,0,0,0,1.9023,1.9032,1.9085,1.9088,1.9061,1.9096,1.9103,1.9114,1.9147,1.9152,1.9135,1.9136,1.918,1.9184,1.9188,1.9202,1.9206,1.9208,1.9209,1.9249,1.9249,1.9249,0,0,0,0,0,0,1.9022,1.9028,1.9083,1.9061,1.9069,1.9098,1.911,1.9115,1.9124,1.9153,1.9158,1.9139,1.918,1.9186,1.9203,1.9204,1.9209,1.9211,1.9249,1.9249,1.9249,1.9229,0,0,0,0,0,0,1.902,1.9027,1.903,1.9061,1.907,1.9097,1.911,1.9116,1.9128,1.913,1.9158,1.9163,1.9181,1.92,1.9205,1.9207,1.9212,1.9249,1.9249,1.9249,1.923,1.9229,1.9227,0,0,0,0,0,1.9017,1.9022,1.903,1.9037,1.9075,1.9097,1.9102,1.9123,1.9128,1.9132,1.915,1.9162,1.9204,1.9202,1.9207,1.921,1.9249,1.9249,1.9249,1.923,1.9229,1.9227,0,0,0,0,0,0,1.8989,1.9026,1.9036,1.9051,1.9071,1.9102,1.9107,1.912,1.9138,1.9139,1.9164,1.917,1.9186,1.9199,1.9197,1.9221,1.9228,1.9229,1.9212,1.921,1.9209,1.9205,1.9214,0,0,0,0,0,1.8985,1.9,1.9032,1.9042,1.9051,1.9078,1.9088,1.9103,1.9124,1.9132,1.9152,1.9172,1.919,1.9201,1.9218,1.9232,1.924,1.9237,1.9236,1.9235,1.9235,1.9246,1.9245,1.9249,1.9249,1.9249,0,0,1.8976,1.8998,1.9006,1.9037,1.9054,1.907,1.9084,1.91,1.9112,1.9134,1.9153,1.9168,1.9192,1.9208,1.9217,1.922,1.9236,1.9235,1.9233,1.9235,1.9246,1.9245,1.9245,1.9249,1.9249,1.9249,0,0,1.8968,1.8985,1.8997,1.9015,1.9041,1.9059,1.9062,1.9092,1.9103,1.9122,1.914,1.9155,1.9184,1.9202,1.9214,1.9216,1.9228,1.9221,1.9214,1.9224,1.9224,1.9224,1.9226,1.9226,1.9221,1.9221,1.9221,0,1.8953,1.8978,1.9001,1.9016,1.903,1.9053,1.9065,1.9081,1.9111,1.9121,1.9125,1.9164,1.9182,1.9203,1.9204,1.9213,1.9218,1.9217,1.9222,1.9222,1.9222,1.9225,1.9225,1.922,1.922,1.922,1.9221,0,1.8959,1.8976,1.8982,1.9013,1.9027,1.9041,1.9067,1.9079,1.9093,1.911,1.9131,1.9153,1.9177,1.9183,1.9196,1.9207,1.9209,1.9217,1.9224,1.9221,1.9223,1.9224,1.9219,1.9219,1.922,1.922,0,0,1.8933,1.8979,1.898,1.8996,1.9028,1.9042,1.9057,1.9082,1.9092,1.9113,1.9127,1.9153,1.9162,1.9176,1.9192,1.92,1.9203,1.9208,1.9209,1.9207,1.9219,1.9213,1.9213,1.9211,1.9211,1.9212,1.9217,0,1.893,1.896,1.8983,1.9003,1.9021,1.9044,1.9058,1.9079,1.9097,1.9114,1.9133,1.9152,1.9161,1.917,1.918,1.92,1.9205,1.92,1.9225,1.9226,1.9219,1.9214,1.9208,1.9212,1.9218,1.9218,1.9218,0,1.893,1.8953,1.8976,1.9009,1.9017,1.9029,1.9054,1.907,1.9096,1.9108,1.9126,1.9142,1.9161,1.9166,1.9193,1.9189,1.92,1.9212,1.9213,1.9216,1.9222,1.9218,1.9213,1.9214,1.922,1.922,1.922,0,1.8911,1.8946,1.8965,1.8977,1.9016,1.9024,1.9041,1.9066,1.9081,1.9103,1.9113,1.9136,1.915,1.9168,1.9191,1.9193,1.9215,1.9222,1.9227,1.9226,1.923,1.923,1.9228,1.9237,1.9237,1.9237,1.9237,0,1.8906,1.8919,1.8957,1.8969,1.8986,1.9012,1.9028,1.9046,1.9069,1.9086,1.9107,1.9121,1.9151,1.9169,1.9187,1.9207,1.9213,1.9224,1.9228,1.9222,1.9221,1.923,1.9231,1.9237,1.9237,1.9237,1.9237,0,1.8886,1.8912,1.8935,1.8971,1.898,1.8991,1.9021,1.9034,1.9054,1.9074,1.908,1.9111,1.9134,1.9159,1.919,1.9203,1.9222,1.9228,1.9214,1.9217,1.922,1.922,1.9224,1.9227,1.9233,1.9233,1.9233,0,1.8881,1.8893,1.893,1.8943,1.896,1.898,1.8995,1.9022,1.9037,1.9069,1.9078,1.9104,1.9125,1.9161,1.9186,1.9211,1.9218,1.9218,1.9222,1.9216,1.922,1.9219,1.9221,1.9217,1.9217,1.9217,1.9217,0,1.8871,1.8884,1.8905,1.8932,1.895,1.8972,1.8995,1.9004,1.9036,1.9052,1.9077,1.9094,1.9127,1.9152,1.9181,1.9198,1.9213,1.9216,1.9218,1.9212,1.9204,1.921,1.9211,1.9215,1.9215,1.9215,1.9215,1.9215,1.8859,1.8871,1.89,1.8924,1.8945,1.8967,1.8981,1.9004,1.9025,1.9055,1.907,1.9095,1.9123,1.9162,1.9179,1.92,1.9204,1.9207,1.9208,1.9209,1.9208,1.92,1.9205,1.9205,1.9205,1.9205,1.9205,0,1.885,1.8871,1.8893,1.8926,1.8945,1.8959,1.8986,1.9001,1.9023,1.9048,1.907,1.9099,1.9125,1.9153,1.918,1.9191,1.9199,1.9197,1.9197,1.9201,1.9202,1.9198,1.9191,1.9191,1.9191,1.9191,1.9191,1.9191,1.8848,1.887,1.8887,1.892,1.8941,1.8967,1.8981,1.9002,1.9022,1.9054,1.9076,1.9095,1.9122,1.9151,1.9176,1.9183,1.9193,1.9189,1.9199,1.9199,1.92,1.9202,1.9198,1.9191,1.9191,1.9197,1.9197,1.9197]}]]